Weather History for Astoria, OR

Change the Weather History Date:

Tuesday, October 8, 2013

  Actual Average Record
Temperature  
Mean Temperature 55 °F 54 °F  
Max Temperature 59 °F 63 °F 81 °F (1971)
Min Temperature 51 °F 45 °F 33 °F (1985)
Degree Days  
Heating Degree Days 10 11  
Month to date heating degree days 93 81  
Since 1 July heating degree days 486 562  
Cooling Degree Days 0 0  
Month to date cooling degree days 0 0  
Year to date cooling degree days 9 12  
Growing Degree Days 2 (Base 50)    
Moisture  
Dew Point 47 °F    
Average Humidity 79    
Maximum Humidity 96    
Minimum Humidity 62    
Precipitation  
Precipitation 0.22 in 0.14 in 2.80 in (1962)
Month to date precipitation 1.80 1.01  
Year to date precipitation 48.85 41.25  
Snow  
Snow 0.00 in - - ()
Month to date snowfall 0.0  
Since 1 July snowfall 0.0  
Since 1 September snowfall 0.0  
Snow Depth 0.00 in    
Sea Level Pressure  
Sea Level Pressure 30.06 in    
Wind  
Wind Speed 11 mph (WNW)    
Max Wind Speed 24 mph    
Max Gust Speed 33 mph    
Visibility 9 miles    
Events Rain    
T = Trace of Precipitation, MM = Missing Value Source: NWS Daily Summary

Daily Weather History Graph

Daily Weather History Graph

Search for Another Location

Airport:

Trip Planner

Search our weather history database for the weather conditions in past years. The results will help you decide how hot, cold, wet, or windy it might be!

Date:

Astronomy

Oct. 08, 2013 Rise Set
Actual Time 7:23 AM PDT 6:41 PM PDT
Civil Twilight 6:53 AM PDT 7:11 PM PDT
Nautical Twilight 6:18 AM PDT 7:46 PM PDT
Astronomical Twilight 5:43 AM PDT 8:20 PM PDT
Moon 11:36 AM PDT (10/8) 9:10 PM PDT (10/8)
Length of Visible Light 12h 17m
Length of Day
11h 17m
Waxing Crescent, 17% of the Moon is Illuminated
Oct 8
Waxing Crescent
Oct 11
First Quarter
Oct 18
Full
Oct 26
Last Quarter
Nov 3
New

Hourly Weather History & Observations

Time (PDT) Temp. Dew Point Humidity Pressure Visibility Wind Dir Wind Speed Gust Speed Precip Events Conditions
12:55 AM 55.0 °F 46.9 °F 74% 30.12 in 10.0 mi WNW 6.9 mph - 0.00 in   Overcast
1:55 AM 54.0 °F 50.0 °F 86% 30.13 in 10.0 mi West 11.5 mph 21.9 mph 0.00 in   Overcast
2:08 AM 53.6 °F 48.2 °F 82% 30.13 in 10.0 mi West 9.2 mph - N/A   Overcast
2:55 AM 54.0 °F 48.0 °F 80% 30.12 in 10.0 mi West 6.9 mph - N/A   Overcast
3:55 AM 51.1 °F 50.0 °F 96% 30.11 in 9.0 mi SW 3.5 mph - 0.05 in   Overcast
4:55 AM 53.1 °F 48.9 °F 86% 30.10 in 8.0 mi WSW 9.2 mph - 0.00 in   Overcast
5:55 AM 53.1 °F 48.9 °F 86% 30.09 in 8.0 mi West 3.5 mph - 0.00 in   Overcast
6:55 AM 53.1 °F 48.0 °F 83% 30.09 in 10.0 mi West 6.9 mph - N/A   Overcast
7:55 AM 53.1 °F 48.9 °F 86% 30.08 in 8.0 mi West 6.9 mph - 0.01 in   Overcast
8:11 AM 53.6 °F 48.2 °F 82% 30.08 in 9.0 mi West 8.1 mph - N/A   Overcast
8:43 AM 53.6 °F 50.0 °F 88% 30.07 in 1.2 mi West 8.1 mph - 0.00 in Rain Light Rain
8:50 AM 53.6 °F 48.2 °F 82% 30.07 in 0.8 mi West 9.2 mph - 0.12 in Rain Light Rain
8:53 AM 53.6 °F 48.2 °F 82% 30.07 in 1.5 mi West 9.2 mph - 0.12 in Rain Light Rain
8:55 AM 53.1 °F 48.9 °F 86% 30.07 in 4.0 mi West 11.5 mph - 0.12 in Rain Light Rain
9:07 AM 53.6 °F 50.0 °F 88% 30.06 in 10.0 mi WSW 6.9 mph - 0.00 in   Overcast
9:55 AM 55.0 °F 48.9 °F 80% 30.06 in 10.0 mi West 10.4 mph - 0.00 in   Overcast
10:55 AM 53.1 °F 48.9 °F 86% 30.05 in 10.0 mi WNW 10.4 mph - 0.03 in Rain Light Rain
11:55 AM 55.9 °F 52.0 °F 87% 30.04 in 10.0 mi West 9.2 mph - 0.01 in   Mostly Cloudy
12:55 PM 57.0 °F 46.9 °F 69% 30.03 in 10.0 mi WNW 20.7 mph 25.3 mph 0.00 in   Scattered Clouds
1:55 PM 57.0 °F 45.0 °F 64% 30.01 in 10.0 mi NW 17.3 mph 24.2 mph N/A   Mostly Cloudy
2:55 PM 54.0 °F 46.9 °F 77% 30.01 in 10.0 mi North 16.1 mph - 0.00 in   Overcast
2:57 PM 53.6 °F 46.4 °F 77% 30.01 in 10.0 mi NNW 17.3 mph - N/A   Overcast
3:07 PM 53.6 °F 46.4 °F 77% 30.02 in 10.0 mi NNW 17.3 mph 23.0 mph N/A   Overcast
3:14 PM 53.6 °F 46.4 °F 77% 30.02 in 10.0 mi NNW 17.3 mph - N/A   Overcast
3:55 PM 55.9 °F 46.9 °F 72% 30.01 in 10.0 mi NW 19.6 mph 24.2 mph 0.00 in   Mostly Cloudy
4:55 PM 55.9 °F 45.0 °F 67% 30.01 in 10.0 mi NNW 15.0 mph 24.2 mph N/A   Partly Cloudy
5:55 PM 54.0 °F 44.1 °F 69% 30.01 in 10.0 mi NW 13.8 mph - N/A   Partly Cloudy
6:55 PM 54.0 °F 44.1 °F 69% 30.02 in 10.0 mi NNW 11.5 mph - N/A   Mostly Cloudy
7:55 PM 54.0 °F 45.0 °F 72% 30.02 in 10.0 mi NW 8.1 mph - N/A   Overcast
8:55 PM 53.1 °F 46.0 °F 77% 30.03 in 10.0 mi Variable 5.8 mph - N/A   Overcast
9:55 PM 48.0 °F 45.0 °F 89% 30.04 in 10.0 mi Calm Calm - N/A   Partly Cloudy
10:55 PM 46.0 °F 44.1 °F 93% 30.06 in 9.0 mi Calm Calm - N/A   Clear
11:55 PM 43.0 °F 41.0 °F 93% 30.06 in 10.0 mi Calm Calm - N/A   Clear